Location: Antichan
(42.9728°N, 0.6667°E)
Time: 14:10:35
(UTC+00:00)

Cosmos 2322 - Pass Details

Date: 15 August 2020
Orbit: 842 x 853 km, 71.0° (Epoch: 24 September)

Event Time Altitude Azimuth Distance (km) Brightness Sun altitude
Rises 21:49:09 0° 339° (NNW) 3,410 8.1 -25.7°
Reaches altitude 10° 21:51:41 10° 344° (NNW) 2,470 7.0 -26.0°
Maximum altitude 21:57:12 52° 61° (ENE) 1,040 4.0 -26.6°
Enters shadow 21:57:27 52° 70° (ENE) 1,044 4.0 -26.6°
